Regional Weather Roundup
Issued by NWS

Home | Current Version | Previous Version | Graphics & Text | Print | Product List | Glossary On
Versions: 1 2 3 4 5 6 7 8 9 10 11 12 13 14 15 16 17 18 19 20 21 22 23 24 25 26 27 28 29 30 31 32 33 34 35 36 37 38 39 40 41 42 43 44 45 46 47 48 49 50
000
ASUS43 KLMK 271910
RWRKY
KENTUCKY REGIONAL WEATHER ROUNDUP
NATIONAL WEATHER SERVICE LOUISVILLE KY
200 PM EST THU NOV 27 2014

NOTE "FAIR" INDICATES FEW OR NO CLOUDS BELOW 12,000 FEET
WITH NO SIGNIFICANT WEATHER AND/OR OBSTRUCTIONS TO VISIBILITY.

KYZ001>023-026-027-061>063-070>075-272000-
WESTERN AND SOUTH CENTRAL KENTUCKY

CITY           SKY/WX    TMP DP  RH WIND       PRES   REMARKS
PADUCAH        CLOUDY    33  24  69 NW8       30.47F WCI  26
HENDERSON      CLOUDY    30  23  74 NW13G21   30.45R WCI  20
OWENSBORO      CLOUDY    31  25  78 NW9G18    30.43F WCI  23
HOPKINSVILLE   CLOUDY    33  24  70 NW13G20   30.44S WCI  24
BOWLING GREEN  CLOUDY    31  21  66 NW12      30.43R WCI  22
GLASGOW        CLOUDY    31  25  76 NW10      30.39S WCI  23
$$

KYZ024-025-028>034-038-045-046-053-272000-
NORTH CENTRAL KENTUCKY

CITY           SKY/WX    TMP DP  RH WIND       PRES   REMARKS
LOUISVILLE/SDF PTSUNNY   35  25  66 W9        30.36S WCI  28
LOUISVILLE/LOU CLOUDY    34  23  64 W12       30.36S WCI  25
FORT KNOX      CLOUDY    31  25  81 W10       30.35S WCI  22
$$

KYZ035>037-039>044-047>052-055>060-089>105-272000-
NORTHEAST KENTUCKY

CITY           SKY/WX    TMP DP  RH WIND       PRES   REMARKS
LEXINGTON      CLOUDY    34  23  64 W12       30.30S WCI  25
COVINGTON      CLOUDY    32  21  64 W15       30.29R WCI  22
FRANKFORT      CLOUDY    33  21  61 NW13G20   30.31S WCI  24
$$

KYZ054-064>069-076>088-106>120-272000-
SOUTHEAST KENTUCKY

CITY           SKY/WX    TMP DP  RH WIND       PRES   REMARKS
JACKSON        CLOUDY    30  22  72 NW10      30.25R WCI  21
LONDON         CLOUDY    31  23  72 NW14G23   30.30R WCI  21
SOMERSET       CLOUDY    32  27  80 NW10G17   30.35R WCI  24
MIDDLESBORO    NOT AVBL
MONTICELLO     FLURRIES  33  29  86 NW16G22   30.36R WCI  22
$$



USA.gov is the U.S. government's official web portal to all federal, state and local government web resources and services.